,,PA_Meas_PMT16A,,PR_Meas_QMR101_102,,RH_Meas_QMH101,,SR_Meas_QMS101,,TA_Meas_QMH101,,GenWind,,GenWind,
time,status,PA,status,PR,status,RH,status,SR,status,TA,status,DirAvg,status,SpdAvg,
2013-09-27, 00:00:04,VALID,919.919,VALID,0,VALID,95.6129,VALID,0,VALID,19.0998,VALID,138,VALID,0,
2013-09-27, 00:01:04,VALID,919.886,VALID,0,VALID,95.5671,VALID,0,VALID,19.0608,VALID,138,VALID,0,
2013-09-27, 00:02:04,VALID,919.899,VALID,0,VALID,95.6586,VALID,0,VALID,19.0998,VALID,138,VALID,0,
2013-09-27, 00:03:04,VALID,919.908,VALID,0,VALID,95.6967,VALID,0,VALID,19.0803,VALID,138,VALID,0,
2013-09-27, 00:04:04,VALID,919.853,VALID,0,VALID,95.7196,VALID,0,VALID,19.0817,VALID,138,VALID,0,
2013-09-27, 00:05:04,VALID,919.856,VALID,0,VALID,95.7425,VALID,0,VALID,19.0608,VALID,138,VALID,0,
2013-09-27, 00:06:04,VALID,919.812,VALID,0,VALID,95.7882,VALID,0,VALID,19.0608,VALID,138,VALID,0,
2013-09-27, 00:07:04,VALID,919.782,VALID,0,VALID,95.7882,VALID,0,VALID,19.0817,VALID,138,VALID,0,
2013-09-27, 00:08:04,VALID,919.739,VALID,0,VALID,95.7272,VALID,0,VALID,19.0622,VALID,138,VALID,0,
2013-09-27, 00:09:04,VALID,919.738,VALID,0,VALID,95.7044,VALID,0,VALID,19.0413,VALID,138,VALID,0,
2013-09-27, 00:10:04,VALID,919.682,VALID,0,VALID,95.6891,VALID,0,VALID,19.0788,VALID,138,VALID,0,
2013-09-27, 00:11:04,VALID,919.674,VALID,0,VALID,95.7272,VALID,0,VALID,19.1178,VALID,138,VALID,0,
2013-09-27, 00:12:04,VALID,919.659,VALID,0,VALID,95.7349,VALID,0,VALID,19.1568,VALID,138,VALID,0,
2013-09-27, 00:13:04,VALID,919.647,VALID,0,VALID,95.8111,VALID,0,VALID,19.2363,VALID,138,VALID,0,
2013-09-27, 00:14:04,VALID,919.611,VALID,0,VALID,95.8721,VALID,0,VALID,19.2363,VALID,138,VALID,0,
2013-09-27, 00:15:04,VALID,919.583,VALID,0,VALID,95.8873,VALID,0,VALID,19.2153,VALID,138,VALID,0,
2013-09-27, 00:16:04,VALID,919.566,VALID,0,VALID,95.9102,VALID,0.107441,VALID,19.2543,VALID,138,VALID,0,
2013-09-27, 00:17:04,VALID,919.543,VALID,0,VALID,95.8645,VALID,0,VALID,19.1763,VALID,138,VALID,0,
2013-09-27, 00:18:04,VALID,919.489,VALID,0,VALID,95.6053,VALID,0,VALID,19.0023,VALID,138,VALID,0,
2013-09-27, 00:19:04,VALID,919.468,VALID,0,VALID,95.5367,VALID,0,VALID,18.9424,VALID,138,VALID,0,
2013-09-27, 00:20:04,VALID,919.471,VALID,0,VALID,95.5976,VALID,0,VALID,18.9229,VALID,138,VALID,0,
2013-09-27, 00:21:04,VALID,919.473,VALID,0,VALID,95.651,VALID,0,VALID,18.9034,VALID,138,VALID,0,
2013-09-27, 00:22:04,VALID,919.457,VALID,0,VALID,95.7654,VALID,0,VALID,18.9814,VALID,138,VALID,0,
2013-09-27, 00:23:04,VALID,919.45,VALID,0,VALID,95.8416,VALID,0,VALID,19.0023,VALID,138,VALID,0,
2013-09-27, 00:24:04,VALID,919.41,VALID,0,VALID,95.8187,VALID,0,VALID,18.9619,VALID,138,VALID,0,
2013-09-27, 00:25:04,VALID,919.414,VALID,0,VALID,95.7806,VALID,0,VALID,19.0203,VALID,138,VALID,0,
2013-09-27, 00:26:04,VALID,919.42,VALID,0,VALID,95.7272,VALID,0,VALID,19.0593,VALID,134,VALID,0,
2013-09-27, 00:27:04,VALID,919.452,VALID,0,VALID,95.7349,VALID,0,VALID,19.0983,VALID,127,VALID,0,
2013-09-27, 00:28:04,VALID,919.443,VALID,0,VALID,95.7272,VALID,0,VALID,19.0803,VALID,127,VALID,0,
2013-09-27, 00:29:04,VALID,919.497,VALID,0,VALID,95.7349,VALID,0,VALID,19.0608,VALID,131,VALID,0,
2013-09-27, 00:30:04,VALID,919.497,VALID,0,VALID,95.7806,VALID,0,VALID,19.0398,VALID,134,VALID,0,
2013-09-27, 00:31:04,VALID,919.476,VALID,0,VALID,95.7577,VALID,0,VALID,18.9814,VALID,135,VALID,0,
2013-09-27, 00:32:04,VALID,919.501,VALID,0,VALID,95.6967,VALID,0,VALID,18.9633,VALID,135,VALID,0,
2013-09-27, 00:33:04,VALID,919.518,VALID,0,VALID,95.651,VALID,0,VALID,18.9034,VALID,137,VALID,0,
2013-09-27, 00:34:04,VALID,919.505,VALID,0,VALID,95.7196,VALID,0,VALID,18.9424,VALID,135,VALID,0,
2013-09-27, 00:35:04,VALID,919.461,VALID,0,VALID,95.712,VALID,0,VALID,18.9229,VALID,134,VALID,0,
2013-09-27, 00:36:04,VALID,919.423,VALID,0,VALID,95.7501,VALID,0,VALID,18.9034,VALID,131,VALID,0,
2013-09-27, 00:37:04,VALID,919.428,VALID,0,VALID,95.8416,VALID,0,VALID,18.9438,VALID,138,VALID,0,
2013-09-27, 00:38:04,VALID,919.375,VALID,0,VALID,95.9483,VALID,0,VALID,18.9814,VALID,144,VALID,0,
2013-09-27, 00:39:04,VALID,919.358,VALID,0,VALID,96.0474,VALID,0,VALID,19.0218,VALID,141,VALID,0,
2013-09-27, 00:40:04,VALID,919.32,VALID,0,VALID,96.0855,VALID,0,VALID,19.0413,VALID,140,VALID,0,
2013-09-27, 00:41:04,VALID,919.358,VALID,0,VALID,96.1618,VALID,0,VALID,19.0413,VALID,133,VALID,0,
2013-09-27, 00:42:04,VALID,919.297,VALID,0,VALID,96.177,VALID,0,VALID,19.0413,VALID,138,VALID,0,
2013-09-27, 00:43:04,VALID,919.294,VALID,0,VALID,96.1999,VALID,0,VALID,19.0413,VALID,135,VALID,0,
2013-09-27, 00:44:04,VALID,919.275,VALID,0,VALID,96.2304,VALID,0,VALID,19.0413,VALID,132,VALID,0,
2013-09-27, 00:45:04,VALID,919.22,VALID,0,VALID,96.2228,VALID,0,VALID,19.0413,VALID,133,VALID,0,
2013-09-27, 00:46:04,VALID,919.247,VALID,0,VALID,96.2609,VALID,0,VALID,19.0203,VALID,133,VALID,0,
2013-09-27, 00:47:04,VALID,919.223,VALID,0,VALID,96.2685,VALID,0,VALID,19.0008,VALID,133,VALID,0,
2013-09-27, 00:48:04,VALID,919.194,VALID,0,VALID,96.2837,VALID,0.107441,VALID,18.9814,VALID,134,VALID,0,
2013-09-27, 00:49:04,VALID,919.204,VALID,0,VALID,96.2914,VALID,0,VALID,18.9828,VALID,133,VALID,0,
2013-09-27, 00:50:04,VALID,919.188,VALID,0,VALID,96.299,VALID,0,VALID,18.9424,VALID,133,VALID,0,
2013-09-27, 00:51:04,VALID,919.165,VALID,0,VALID,96.2837,VALID,0,VALID,18.9438,VALID,133,VALID,0,
2013-09-27, 00:52:04,VALID,919.148,VALID,0,VALID,96.2533,VALID,0,VALID,18.9424,VALID,135,VALID,0,
2013-09-27, 00:53:04,VALID,919.128,VALID,0,VALID,96.2609,VALID,0,VALID,18.9229,VALID,143,VALID,0,
2013-09-27, 00:54:04,VALID,919.166,VALID,0,VALID,96.2456,VALID,0,VALID,18.9424,VALID,142,VALID,0,
2013-09-27, 00:55:04,VALID,919.135,VALID,0,VALID,96.1999,VALID,0,VALID,18.9229,VALID,125,VALID,0,
2013-09-27, 00:56:04,VALID,919.143,VALID,0,VALID,96.1541,VALID,0,VALID,18.9633,VALID,125,VALID,0,
2013-09-27, 00:57:04,VALID,919.122,VALID,0,VALID,96.1084,VALID,0,VALID,18.9229,VALID,135,VALID,0,
2013-09-27, 00:58:04,VALID,919.09,VALID,0,VALID,96.0398,VALID,0,VALID,18.9828,VALID,134,VALID,0,
2013-09-27, 00:59:04,VALID,919.091,VALID,0,VALID,96.0093,VALID,0,VALID,18.9828,VALID,141,VALID,0,
2013-09-27, 01:00:04,VALID,919.057,VALID,0,VALID,95.9636,VALID,0,VALID,19.0008,VALID,141,VALID,0,
2013-09-27, 01:01:04,VALID,919.044,VALID,0,VALID,95.9178,VALID,0,VALID,19.0218,VALID,141,VALID,0,
2013-09-27, 01:02:04,VALID,919.009,VALID,0,VALID,95.8492,VALID,0,VALID,19.0008,VALID,141,VALID,0,
2013-09-27, 01:03:04,VALID,918.976,VALID,0,VALID,95.7654,VALID,0,VALID,19.0413,VALID,141,VALID,0,
2013-09-27, 01:04:04,VALID,918.952,VALID,0,VALID,95.7501,VALID,0,VALID,19.0608,VALID,141,VALID,0,
2013-09-27, 01:05:04,VALID,918.949,VALID,0,VALID,95.6967,VALID,0,VALID,19.0803,VALID,141,VALID,0,
2013-09-27, 01:06:04,VALID,918.914,VALID,0,VALID,95.6815,VALID,0,VALID,19.0983,VALID,141,VALID,0,
2013-09-27, 01:07:04,VALID,918.9,VALID,0,VALID,95.6815,VALID,0,VALID,19.0983,VALID,141,VALID,0,
2013-09-27, 01:08:04,VALID,918.884,VALID,0,VALID,95.651,VALID,0,VALID,19.1178,VALID,141,VALID,0,
2013-09-27, 01:09:04,VALID,918.892,VALID,0,VALID,95.5976,VALID,0,VALID,19.1583,VALID,141,VALID,0,
2013-09-27, 01:10:04,VALID,918.854,VALID,0,VALID,95.5519,VALID,0,VALID,19.1388,VALID,134,VALID,0,
2013-09-27, 01:11:04,VALID,918.838,VALID,0,VALID,95.5214,VALID,0,VALID,19.1583,VALID,128,VALID,0,
2013-09-27, 01:12:04,VALID,918.847,VALID,0,VALID,95.4528,VALID,0,VALID,19.1388,VALID,121,VALID,0,
2013-09-27, 01:13:04,VALID,918.808,VALID,0,VALID,95.3537,VALID,0,VALID,19.1388,VALID,123,VALID,0,
2013-09-27, 01:14:04,VALID,918.822,VALID,0,VALID,95.2622,VALID,0,VALID,19.0983,VALID,130,VALID,0,
2013-09-27, 01:15:04,VALID,918.798,VALID,0,VALID,95.2165,VALID,0,VALID,19.1178,VALID,134,VALID,0,
2013-09-27, 01:16:04,VALID,918.775,VALID,0,VALID,95.1174,VALID,0,VALID,19.1178,VALID,144,VALID,0,
2013-09-27, 01:17:04,VALID,918.76,VALID,0,VALID,95.0716,VALID,0,VALID,19.1583,VALID,132,VALID,0,
2013-09-27, 01:18:04,VALID,918.741,VALID,0,VALID,95.0945,VALID,0,VALID,19.0983,VALID,133,VALID,0,
2013-09-27, 01:19:04,VALID,918.703,VALID,0,VALID,95.125,VALID,0,VALID,19.0398,VALID,135,VALID,0,
2013-09-27, 01:20:04,VALID,918.726,VALID,0,VALID,95.2317,VALID,0,VALID,19.0218,VALID,137,VALID,0,
2013-09-27, 01:21:04,VALID,918.681,VALID,0,VALID,95.3461,VALID,0,VALID,19.0023,VALID,142,VALID,0,
2013-09-27, 01:22:04,VALID,918.695,VALID,0,VALID,95.468,VALID,0,VALID,18.9828,VALID,141,VALID,0,
2013-09-27, 01:23:04,VALID,918.651,VALID,0,VALID,95.5824,VALID,0,VALID,18.9619,VALID,136,VALID,0,
2013-09-27, 01:24:04,VALID,918.631,VALID,0,VALID,95.6815,VALID,0,VALID,18.9814,VALID,136,VALID,0,
2013-09-27, 01:25:04,VALID,918.618,VALID,0,VALID,95.8035,VALID,0,VALID,18.9842,VALID,128,VALID,0,
2013-09-27, 01:26:04,VALID,918.588,VALID,0,VALID,95.8492,VALID,0,VALID,18.9647,VALID,138,VALID,0,
2013-09-27, 01:27:04,VALID,918.551,VALID,0,VALID,95.9102,VALID,0,VALID,18.9647,VALID,140,VALID,0,
2013-09-27, 01:28:04,VALID,918.497,VALID,0,VALID,95.9941,VALID,0,VALID,18.9828,VALID,137,VALID,0,
2013-09-27, 01:29:04,VALID,918.492,VALID,0,VALID,96.0398,VALID,0,VALID,19.0218,VALID,155,VALID,0,
2013-09-27, 01:30:04,VALID,918.459,VALID,0,VALID,96.0779,VALID,0,VALID,19.0427,VALID,150,VALID,0,
2013-09-27, 01:31:04,VALID,918.454,VALID,0,VALID,96.116,VALID,0,VALID,19.0218,VALID,150,VALID,0,
2013-09-27, 01:32:04,VALID,918.463,VALID,0,VALID,96.1313,VALID,0,VALID,19.0413,VALID,138,VALID,0,
2013-09-27, 01:33:04,VALID,918.46,VALID,0,VALID,96.1541,VALID,0,VALID,19.1012,VALID,138,VALID,0,
2013-09-27, 01:34:04,VALID,918.404,VALID,0,VALID,96.1846,VALID,0,VALID,19.0608,VALID,138,VALID,0,
2013-09-27, 01:35:04,VALID,918.419,VALID,0,VALID,96.1465,VALID,0,VALID,19.0817,VALID,138,VALID,0,
2013-09-27, 01:36:04,VALID,918.419,VALID,0,VALID,96.1313,VALID,0,VALID,19.0622,VALID,138,VALID,0,
2013-09-27, 01:37:04,VALID,918.4,VALID,0,VALID,96.1008,VALID,0,VALID,19.0413,VALID,137,VALID,0,
2013-09-27, 01:38:04,VALID,918.389,VALID,0,VALID,96.0779,VALID,0,VALID,19.0413,VALID,139,VALID,0,
2013-09-27, 01:39:04,VALID,918.351,VALID,0,VALID,96.0703,VALID,0,VALID,19.0817,VALID,139,VALID,0,
2013-09-27, 01:40:04,VALID,918.347,VALID,0,VALID,96.0169,VALID,0,VALID,19.0398,VALID,139,VALID,0,
2013-09-27, 01:41:04,VALID,918.317,VALID,0,VALID,95.9712,VALID,0,VALID,19.0413,VALID,144,VALID,0,
2013-09-27, 01:42:04,VALID,918.315,VALID,0,VALID,95.9102,VALID,0,VALID,19.0398,VALID,133,VALID,0,
2013-09-27, 01:43:04,VALID,918.304,VALID,0,VALID,95.8797,VALID,0,VALID,19.0203,VALID,123,VALID,0,
2013-09-27, 01:44:04,VALID,918.33,VALID,0,VALID,95.8645,VALID,0.107441,VALID,19.0203,VALID,148,VALID,0,
2013-09-27, 01:45:04,VALID,918.342,VALID,0,VALID,95.8645,VALID,0.107441,VALID,18.9828,VALID,137,VALID,0,
2013-09-27, 01:46:04,VALID,918.371,VALID,0,VALID,95.8568,VALID,0,VALID,19.0218,VALID,157,VALID,0,
2013-09-27, 01:47:04,VALID,918.296,VALID,0,VALID,95.895,VALID,0,VALID,19.0218,VALID,125,VALID,0,
2013-09-27, 01:48:04,VALID,918.317,VALID,0,VALID,95.9026,VALID,0,VALID,19.0008,VALID,112,VALID,0,
2013-09-27, 01:49:04,VALID,918.297,VALID,0,VALID,95.895,VALID,0,VALID,19.0413,VALID,118,VALID,0,
2013-09-27, 01:50:04,VALID,918.296,VALID,0,VALID,95.9331,VALID,0,VALID,19.0203,VALID,127,VALID,0,
2013-09-27, 01:51:04,VALID,918.3,VALID,0,VALID,95.9254,VALID,0,VALID,19.0413,VALID,126,VALID,0,
2013-09-27, 01:52:04,VALID,918.292,VALID,0,VALID,95.9254,VALID,0,VALID,19.0218,VALID,126,VALID,0,
2013-09-27, 01:53:04,VALID,918.306,VALID,0,VALID,95.9254,VALID,0,VALID,19.0203,VALID,120,VALID,0,
2013-09-27, 01:54:04,VALID,918.302,VALID,0,VALID,95.9026,VALID,0.107441,VALID,19.0008,VALID,119,VALID,0,
2013-09-27, 01:55:04,VALID,918.293,VALID,0,VALID,95.8645,VALID,0,VALID,18.9814,VALID,119,VALID,0,
2013-09-27, 01:56:04,VALID,918.292,VALID,0,VALID,95.8645,VALID,0.107441,VALID,19.0203,VALID,119,VALID,0,
2013-09-27, 01:57:04,VALID,918.279,VALID,0,VALID,95.7882,VALID,0,VALID,18.9424,VALID,119,VALID,0,
2013-09-27, 01:58:04,VALID,918.235,VALID,0,VALID,95.7806,VALID,0,VALID,18.9633,VALID,119,VALID,0,
2013-09-27, 01:59:04,VALID,918.235,VALID,0,VALID,95.8263,VALID,0,VALID,19.0023,VALID,119,VALID,0,
2013-09-27, 02:00:04,VALID,918.214,VALID,0,VALID,95.8721,VALID,0,VALID,19.0008,VALID,120,VALID,0,
2013-09-27, 02:01:04,VALID,918.208,VALID,0,VALID,95.8568,VALID,0,VALID,19.0593,VALID,119,VALID,0,
2013-09-27, 02:02:04,VALID,918.157,VALID,0,VALID,95.8873,VALID,0.107441,VALID,19.0008,VALID,120,VALID,0,
2013-09-27, 02:03:04,VALID,918.206,VALID,0,VALID,95.8797,VALID,0,VALID,19.0398,VALID,120,VALID,0,
2013-09-27, 02:04:04,VALID,918.182,VALID,0,VALID,95.8568,VALID,0.107441,VALID,19.0398,VALID,119,VALID,0,
2013-09-27, 02:05:04,VALID,918.168,VALID,0,VALID,95.8416,VALID,0,VALID,19.0203,VALID,119,VALID,0,
2013-09-27, 02:06:04,VALID,918.166,VALID,0,VALID,95.8416,VALID,0,VALID,19.0788,VALID,119,VALID,0,
2013-09-27, 02:07:04,VALID,918.15,VALID,0,VALID,95.8035,VALID,0,VALID,19.0203,VALID,119,VALID,0,
2013-09-27, 02:08:04,VALID,918.138,VALID,0,VALID,95.7577,VALID,0,VALID,19.0008,VALID,119,VALID,0,
2013-09-27, 02:09:04,VALID,918.115,VALID,0,VALID,95.7349,VALID,0,VALID,19.0203,VALID,119,VALID,0,
2013-09-27, 02:10:04,VALID,918.067,VALID,0,VALID,95.712,VALID,0,VALID,19.0788,VALID,120,VALID,0,
2013-09-27, 02:11:04,VALID,918.086,VALID,0,VALID,95.6739,VALID,0,VALID,19.0983,VALID,119,VALID,0,
2013-09-27, 02:12:04,VALID,918.058,VALID,0,VALID,95.6434,VALID,0,VALID,19.0803,VALID,119,VALID,0,
2013-09-27, 02:13:04,VALID,918.078,VALID,0,VALID,95.6053,VALID,0,VALID,19.0803,VALID,119,VALID,0,
2013-09-27, 02:14:04,VALID,918.06,VALID,0,VALID,95.5595,VALID,0,VALID,19.0983,VALID,120,VALID,0,
2013-09-27, 02:15:04,VALID,918.087,VALID,0,VALID,95.5214,VALID,0,VALID,19.1178,VALID,119,VALID,0,
2013-09-27, 02:16:04,VALID,918.092,VALID,0,VALID,95.468,VALID,0,VALID,19.0998,VALID,119,VALID,0,
2013-09-27, 02:17:04,VALID,918.071,VALID,0,VALID,95.4223,VALID,0,VALID,19.1583,VALID,120,VALID,0,
2013-09-27, 02:18:04,VALID,918.072,VALID,0,VALID,95.3613,VALID,0,VALID,19.0983,VALID,120,VALID,0,
2013-09-27, 02:19:04,VALID,918.097,VALID,0,VALID,95.2775,VALID,0,VALID,19.1388,VALID,119,VALID,0,
2013-09-27, 02:20:04,VALID,918.07,VALID,0,VALID,95.1783,VALID,0,VALID,19.0398,VALID,120,VALID,0,
2013-09-27, 02:21:04,VALID,918.094,VALID,0,VALID,95.125,VALID,0,VALID,19.0398,VALID,119,VALID,0,
2013-09-27, 02:22:04,VALID,918.109,VALID,0,VALID,95.0869,VALID,0,VALID,19.0008,VALID,120,VALID,0,
2013-09-27, 02:23:04,VALID,918.084,VALID,0,VALID,95.0106,VALID,0,VALID,19.0413,VALID,128,VALID,0,
2013-09-27, 02:24:04,VALID,918.108,VALID,0,VALID,94.9115,VALID,0,VALID,19.0023,VALID,128,VALID,0,
2013-09-27, 02:25:04,VALID,918.111,VALID,0,VALID,94.942,VALID,0,VALID,18.9619,VALID,120,VALID,0,
2013-09-27, 02:26:04,VALID,918.135,VALID,0,VALID,94.9878,VALID,0,VALID,18.9424,VALID,122,VALID,0,
2013-09-27, 02:27:04,VALID,918.119,VALID,0,VALID,95.0259,VALID,0,VALID,18.9438,VALID,122,VALID,0,
2013-09-27, 02:28:04,VALID,918.127,VALID,0,VALID,95.1174,VALID,0.107441,VALID,18.9034,VALID,122,VALID,0,
2013-09-27, 02:29:04,VALID,918.115,VALID,0,VALID,95.1783,VALID,0,VALID,18.9243,VALID,117,VALID,0,
2013-09-27, 02:30:04,VALID,918.151,VALID,0,VALID,95.2393,VALID,0,VALID,18.9229,VALID,120,VALID,0,
2013-09-27, 02:31:04,VALID,918.155,VALID,0,VALID,95.2622,VALID,0,VALID,18.8644,VALID,124,VALID,0,
2013-09-27, 02:32:04,VALID,918.131,VALID,0,VALID,95.3461,VALID,0,VALID,18.9243,VALID,145,VALID,0,
2013-09-27, 02:33:04,VALID,918.106,VALID,0,VALID,95.4223,VALID,0,VALID,18.8839,VALID,145,VALID,0,
2013-09-27, 02:34:04,VALID,918.106,VALID,0,VALID,95.4604,VALID,0,VALID,18.8658,VALID,145,VALID,0,
2013-09-27, 02:35:04,VALID,918.089,VALID,0,VALID,95.5062,VALID,0,VALID,18.8644,VALID,145,VALID,0,
2013-09-27, 02:36:04,VALID,918.063,VALID,0,VALID,95.5443,VALID,0,VALID,18.8839,VALID,145,VALID,0,
2013-09-27, 02:37:04,VALID,918.038,VALID,0,VALID,95.5671,VALID,0,VALID,18.8853,VALID,162,VALID,0,
2013-09-27, 02:38:04,VALID,918.047,VALID,0,VALID,95.6434,VALID,0,VALID,18.8839,VALID,162,VALID,0,
2013-09-27, 02:39:04,VALID,918.053,VALID,0,VALID,95.6967,VALID,0,VALID,18.9229,VALID,177,VALID,0,
2013-09-27, 02:40:04,VALID,918.039,VALID,0,VALID,95.7425,VALID,0,VALID,18.8658,VALID,177,VALID,0,
2013-09-27, 02:41:04,VALID,918.016,VALID,0,VALID,95.7882,VALID,0,VALID,18.8658,VALID,174,VALID,0,
2013-09-27, 02:42:04,VALID,918.024,VALID,0,VALID,95.8035,VALID,0,VALID,18.9257,VALID,165,VALID,0,
2013-09-27, 02:43:04,VALID,918.018,VALID,0,VALID,95.8492,VALID,0,VALID,18.9062,VALID,163,VALID,0,
2013-09-27, 02:44:04,VALID,918.026,VALID,0,VALID,95.8721,VALID,0,VALID,18.8658,VALID,163,VALID,0,
2013-09-27, 02:45:04,VALID,918.068,VALID,0,VALID,95.8873,VALID,0,VALID,18.8073,VALID,163,VALID,0,
2013-09-27, 02:46:04,VALID,918.039,VALID,0,VALID,95.9178,VALID,0,VALID,18.8672,VALID,163,VALID,0,
2013-09-27, 02:47:04,VALID,918.051,VALID,0,VALID,95.9407,VALID,0,VALID,18.8087,VALID,163,VALID,0,
2013-09-27, 02:48:04,VALID,918.029,VALID,0,VALID,95.9788,VALID,0,VALID,18.8087,VALID,163,VALID,0,
2013-09-27, 02:49:04,VALID,918.042,VALID,0,VALID,95.9941,VALID,0,VALID,18.8087,VALID,163,VALID,0,
2013-09-27, 02:50:04,VALID,918.043,VALID,0,VALID,95.9864,VALID,0,VALID,18.8073,VALID,138,VALID,0,
2013-09-27, 02:51:04,VALID,918.049,VALID,0,VALID,95.9559,VALID,0,VALID,18.7683,VALID,111,VALID,0,
2013-09-27, 02:52:04,VALID,918.023,VALID,0,VALID,95.8721,VALID,0,VALID,18.7892,VALID,111,VALID,0,
2013-09-27, 02:53:04,VALID,918.013,VALID,0,VALID,95.7882,VALID,0,VALID,18.7878,VALID,111,VALID,0,
2013-09-27, 02:54:04,VALID,917.992,VALID,0,VALID,95.6967,VALID,0,VALID,18.7683,VALID,111,VALID,0,
2013-09-27, 02:55:04,VALID,917.995,VALID,0,VALID,95.5824,VALID,0,VALID,18.7669,VALID,111,VALID,0,
2013-09-27, 02:56:04,VALID,917.958,VALID,0,VALID,95.4909,VALID,0,VALID,18.7474,VALID,111,VALID,0,
2013-09-27, 02:57:04,VALID,917.932,VALID,0,VALID,95.3994,VALID,0,VALID,18.7669,VALID,112,VALID,0,
2013-09-27, 02:58:04,VALID,917.915,VALID,0,VALID,95.3079,VALID,0,VALID,18.8059,VALID,112,VALID,0,
2013-09-27, 02:59:04,VALID,917.893,VALID,0,VALID,95.1707,VALID,0.107441,VALID,18.8463,VALID,118,VALID,0,
2013-09-27, 03:00:04,VALID,917.865,VALID,0,VALID,95.1097,VALID,0.107441,VALID,18.8463,VALID,118,VALID,0,
2013-09-27, 03:01:04,VALID,917.865,VALID,0,VALID,95.0335,VALID,0,VALID,18.7669,VALID,118,VALID,0,
2013-09-27, 03:02:04,VALID,917.832,VALID,0,VALID,94.9573,VALID,0,VALID,18.8268,VALID,118,VALID,0,
2013-09-27, 03:03:04,VALID,917.776,VALID,0,VALID,94.8582,VALID,0.107441,VALID,18.8254,VALID,118,VALID,0,
2013-09-27, 03:04:04,VALID,917.77,VALID,0,VALID,94.6905,VALID,0.107441,VALID,18.8059,VALID,118,VALID,0,
2013-09-27, 03:05:04,VALID,917.749,VALID,0,VALID,94.7591,VALID,0,VALID,18.7864,VALID,118,VALID,0,
2013-09-27, 03:06:04,VALID,917.709,VALID,0,VALID,94.6981,VALID,0.107441,VALID,18.7864,VALID,118,VALID,0,
2013-09-27, 03:07:04,VALID,917.707,VALID,0,VALID,94.6981,VALID,0.107441,VALID,18.7669,VALID,118,VALID,0,
2013-09-27, 03:08:04,VALID,917.703,VALID,0,VALID,94.599,VALID,0,VALID,18.7488,VALID,118,VALID,0,
2013-09-27, 03:09:04,VALID,917.69,VALID,0,VALID,94.4999,VALID,0,VALID,18.7293,VALID,118,VALID,0,
2013-09-27, 03:10:04,VALID,917.669,VALID,0,VALID,94.5532,VALID,0,VALID,18.6889,VALID,118,VALID,0,
2013-09-27, 03:11:04,VALID,917.649,VALID,0,VALID,94.599,VALID,0,VALID,18.7084,VALID,118,VALID,0,
2013-09-27, 03:12:04,VALID,917.632,VALID,0,VALID,94.6523,VALID,0,VALID,18.7084,VALID,118,VALID,0,
2013-09-27, 03:13:04,VALID,917.64,VALID,0,VALID,94.5609,VALID,0,VALID,18.6903,VALID,118,VALID,0,
2013-09-27, 03:14:04,VALID,917.62,VALID,0,VALID,94.2635,VALID,0,VALID,18.6499,VALID,118,VALID,0,
2013-09-27, 03:15:04,VALID,917.653,VALID,0,VALID,94.1416,VALID,0,VALID,18.6513,VALID,118,VALID,0,
2013-09-27, 03:16:04,VALID,917.611,VALID,0,VALID,94.0348,VALID,0.107441,VALID,18.5525,VALID,118,VALID,0,
2013-09-27, 03:17:04,VALID,917.617,VALID,0,VALID,94.1263,VALID,0,VALID,18.4745,VALID,118,VALID,0,
2013-09-27, 03:18:04,VALID,917.588,VALID,0,VALID,94.2254,VALID,0,VALID,18.4369,VALID,118,VALID,0,
2013-09-27, 03:19:04,VALID,917.562,VALID,0,VALID,94.4236,VALID,0.107441,VALID,18.4355,VALID,118,VALID,0,
2013-09-27, 03:20:04,VALID,917.554,VALID,0,VALID,94.5532,VALID,0.107441,VALID,18.377,VALID,118,VALID,0,
2013-09-27, 03:21:04,VALID,917.528,VALID,0,VALID,94.5609,VALID,0.107441,VALID,18.3185,VALID,118,VALID,0,
2013-09-27, 03:22:04,VALID,917.502,VALID,0,VALID,94.7667,VALID,0,VALID,18.3185,VALID,118,VALID,0,
2013-09-27, 03:23:04,VALID,917.49,VALID,0,VALID,94.8734,VALID,0.107441,VALID,18.2406,VALID,118,VALID,0,
2013-09-27, 03:24:04,VALID,917.477,VALID,0,VALID,95.0259,VALID,0,VALID,18.2406,VALID,118,VALID,0,
2013-09-27, 03:25:04,VALID,917.498,VALID,0,VALID,95.2088,VALID,0,VALID,18.3004,VALID,118,VALID,0,
2013-09-27, 03:26:04,VALID,917.522,VALID,0,VALID,95.3842,VALID,0,VALID,18.3394,VALID,118,VALID,0,
2013-09-27, 03:27:04,VALID,917.56,VALID,0,VALID,95.5443,VALID,0,VALID,18.3575,VALID,118,VALID,0,
2013-09-27, 03:28:04,VALID,917.581,VALID,0,VALID,95.6815,VALID,0.107441,VALID,18.4174,VALID,118,VALID,0,
2013-09-27, 03:29:04,VALID,917.585,VALID,0,VALID,95.7806,VALID,0.107441,VALID,18.416,VALID,118,VALID,0,
2013-09-27, 03:30:04,VALID,917.596,VALID,0,VALID,95.834,VALID,0.107441,VALID,18.4355,VALID,118,VALID,0,
2013-09-27, 03:31:04,VALID,917.608,VALID,0,VALID,95.9102,VALID,0,VALID,18.4745,VALID,118,VALID,0,
2013-09-27, 03:32:04,VALID,917.618,VALID,0,VALID,95.9636,VALID,0,VALID,18.4745,VALID,118,VALID,0,
2013-09-27, 03:33:04,VALID,917.588,VALID,0,VALID,95.9712,VALID,0.107441,VALID,18.4745,VALID,117,VALID,0,
2013-09-27, 03:34:04,VALID,917.588,VALID,0,VALID,96.0245,VALID,0,VALID,18.494,VALID,117,VALID,0,
2013-09-27, 03:35:04,VALID,917.62,VALID,0,VALID,95.9483,VALID,0,VALID,18.455,VALID,118,VALID,0,
2013-09-27, 03:36:04,VALID,917.642,VALID,0,VALID,95.8416,VALID,0,VALID,18.4369,VALID,126,VALID,0,
2013-09-27, 03:37:04,VALID,917.676,VALID,0,VALID,95.7425,VALID,0,VALID,18.4174,VALID,126,VALID,0,
2013-09-27, 03:38:04,VALID,917.676,VALID,0,VALID,95.6662,VALID,0.107441,VALID,18.4369,VALID,126,VALID,0,
2013-09-27, 03:39:04,VALID,917.68,VALID,0,VALID,95.6205,VALID,0,VALID,18.4369,VALID,126,VALID,0,
2013-09-27, 03:40:04,VALID,917.684,VALID,0,VALID,95.5595,VALID,0,VALID,18.4355,VALID,120,VALID,0,
2013-09-27, 03:41:04,VALID,917.684,VALID,0,VALID,95.5062,VALID,0,VALID,18.494,VALID,113,VALID,0,
2013-09-27, 03:42:04,VALID,917.681,VALID,0,VALID,95.3461,VALID,0,VALID,18.533,VALID,111,VALID,0,
2013-09-27, 03:43:04,VALID,917.687,VALID,0,VALID,95.1936,VALID,0.107441,VALID,18.5525,VALID,111,VALID,0,
2013-09-27, 03:44:04,VALID,917.691,VALID,0,VALID,94.9878,VALID,0,VALID,18.572,VALID,111,VALID,0,
2013-09-27, 03:45:04,VALID,917.714,VALID,0,VALID,94.7896,VALID,0.107441,VALID,18.5914,VALID,111,VALID,0,
2013-09-27, 03:46:04,VALID,917.697,VALID,0,VALID,94.5609,VALID,0,VALID,18.6124,VALID,112,VALID,0,
2013-09-27, 03:47:04,VALID,917.686,VALID,0,VALID,94.4084,VALID,0.107441,VALID,18.572,VALID,122,VALID,0,
2013-09-27, 03:48:04,VALID,917.698,VALID,0,VALID,94.3703,VALID,0,VALID,18.5525,VALID,122,VALID,0,
2013-09-27, 03:49:04,VALID,917.727,VALID,0,VALID,94.416,VALID,0.107441,VALID,18.533,VALID,122,VALID,0,
2013-09-27, 03:50:04,VALID,917.703,VALID,0,VALID,94.599,VALID,0.107441,VALID,18.533,VALID,122,VALID,0,
2013-09-27, 03:51:04,VALID,917.744,VALID,0,VALID,94.6371,VALID,0,VALID,18.533,VALID,122,VALID,0,
2013-09-27, 03:52:04,VALID,917.744,VALID,0,VALID,94.6905,VALID,0,VALID,18.5525,VALID,122,VALID,0,
2013-09-27, 03:53:04,VALID,917.713,VALID,0,VALID,94.6676,VALID,0.107441,VALID,18.5734,VALID,122,VALID,0,
2013-09-27, 03:54:04,VALID,917.659,VALID,0,VALID,94.7514,VALID,0,VALID,18.5539,VALID,122,VALID,0,
2013-09-27, 03:55:04,VALID,917.675,VALID,0,VALID,94.8963,VALID,0,VALID,18.5525,VALID,122,VALID,0,
2013-09-27, 03:56:04,VALID,917.626,VALID,0,VALID,94.9192,VALID,0.107441,VALID,18.5525,VALID,122,VALID,0,
2013-09-27, 03:57:04,VALID,917.612,VALID,0,VALID,94.5227,VALID,0.107441,VALID,18.4954,VALID,122,VALID,0,